This is the latest recevied weather packets stored in our database for station/object SP3SWJ-13. If no packets are shown the sender has not sent any weather packets the latest 10 day(s).
| Time | Temp. | Humidity | Pressure | Rain* | Wind** | Luminosity | Snow |
|---|---|---|---|---|---|---|---|
| 1777550890 | 15.56° C | 35% | 1020.6 hPa | - | - | 694 W/m² | - |
| 1777550589 | 15.56° C | 37% | 1020.6 hPa | - | - | 685 W/m² | - |
| 1777550288 | 15° C | 36% | 1020.6 hPa | - | - | 705 W/m² | - |
| 1777549986 | 14.44° C | 36% | 1020.6 hPa | - | - | 710 W/m² | - |
| 1777549686 | 15° C | 36% | 1020.6 hPa | - | - | 671 W/m² | - |
| 1777549385 | 14.44° C | 36% | 1020.7 hPa | - | - | 615 W/m² | - |
| 1777549084 | 14.44° C | 37% | 1020.8 hPa | - | - | 344 W/m² | - |
| 1777548783 | 13.89° C | 37% | 1020.8 hPa | - | - | 384 W/m² | - |
| 1777548482 | 13.89° C | 36% | 1020.8 hPa | - | - | 347 W/m² | - |
| 1777548181 | 13.89° C | 36% | 1020.8 hPa | - | - | 273 W/m² | - |
| 1777547880 | 15° C | 34% | 1020.8 hPa | - | - | 472 W/m² | - |
| 1777547579 | 14.44° C | 35% | 1020.9 hPa | - | - | 727 W/m² | - |
| 1777547278 | 13.89° C | 36% | 1020.9 hPa | - | - | 740 W/m² | - |
| 1777546977 | 15° C | 34% | 1020.9 hPa | - | - | 741 W/m² | - |
| 1777546676 | 13.89° C | 35% | 1020.9 hPa | - | - | 693 W/m² | - |
| 1777546375 | 13.33° C | 37% | 1021.1 hPa | - | - | 787 W/m² | - |
| 1777546074 | 13.33° C | 36% | 1021.1 hPa | - | - | 591 W/m² | - |
| 1777545773 | 13.89° C | 35% | 1021.1 hPa | - | - | 634 W/m² | - |
| 1777545473 | 13.89° C | 35% | 1021.1 hPa | - | - | 559 W/m² | - |
| 1777545172 | 13.89° C | 35% | 1021.2 hPa | - | - | 662 W/m² | - |
| 1777544870 | 13.33° C | 35% | 1021.2 hPa | - | - | 680 W/m² | - |
| 1777544570 | 13.33° C | 35% | 1021.2 hPa | - | - | 633 W/m² | - |
| 1777544269 | 12.78° C | 36% | 1021.3 hPa | - | - | 663 W/m² | - |
| 1777543967 | 12.78° C | 36% | 1021.4 hPa | - | - | 445 W/m² | - |
| 1777543666 | 13.33° C | 35% | 1021.3 hPa | - | - | 557 W/m² | - |
* Rain since midnight (hover to see other rain measurements)
** Current wind speed in m/s (hover to see current wind gust speed)